Location: Claremont
(33.9858°S, 18.4575°E)
Time: 11:04:16
(UTC+00:00)

Cosmos 2366 rocket - Pass Details

Date: 03 March 2021
Orbit: 954 x 998 km, 82.9° (Epoch: 19 April)

Event Time Altitude Azimuth Distance (km) Brightness Sun altitude
Rises 17:57:11 0° 188° (S) 3,671 7.3 -8.4°
Reaches altitude 10° 17:59:41 10° 188° (S) 2,722 6.6 -8.9°
Maximum altitude 18:05:56 84° 274° (W) 985 4.1 -10.2°
Drops below altitude 10° 18:12:10 10° 2° (N) 2,717 6.2 -11.4°
Sets 18:14:40 0° 2° (N) 3,663 6.8 -11.9°
